{"data":{"norad_id":62071,"intl_designator":"2024-217Q","name":"STARLINK-32553","alt_names":[],"object_type":"PAYLOAD","status":"ACTIVE","operator":null,"country":"US","launch_date":"2024-11-24","launch_site_code":"AFWTR","launch_vehicle":null,"mission":null,"orbit_class":"UNKNOWN","rcs_meters":null,"size_class":null,"mass_kg":null,"dimensions":null,"purposes":["comms"],"wikipedia_slug":null,"has_3d_model":false,"image_url":null,"decayed_at":null,"tle_current":{"epoch":"2026-05-24T20:45:45.910944Z","epoch_age_seconds":93462,"freshness":"FRESH","line1":"1 62071U 24217Q   26144.86511471  .00017252  00000+0  52055-3 0  9998","line2":"2 62071  53.1597 200.1064 0001669  86.0031 274.1163 15.34400643 85132","mean_motion":15.34400643,"eccentricity":0.0001669,"inclination_deg":53.1597,"raan_deg":200.1064,"arg_perigee_deg":86.0031,"mean_anomaly_deg":274.1163,"bstar":0.00052055,"rev_number":8513,"period_min":93.847718753856,"perigee_km":461.55959315914,"apogee_km":463.84306499339,"semimajor_km":6840.8383290763,"source":"CELESTRAK","updated_at":"2026-05-25T13:38:19.553882Z"}}}